CW3847 Weather Reports


time (UTC)temp
F
wind
direction
speed
knots
gust
knots
rain 1hr
in
rain 24hr
in
rain mn
in
humidity
%
barometer
mb
20260507094504 61 6 5.2 8.7 0.00 0.00 0.00 79
20260507093604 61 5 5.2 8.7 0.00 0.00 0.00 79
20260507092704 61 2 3.5 8.7 0.00 0.00 0.00 80
20260507091804 61 11 4.3 7.8 0.00 0.00 0.00 81
20260507090904 61 1 4.3 10.4 0.00 0.00 0.00 81
20260507090025 61 351 3.5 7.0 0.00 0.00 0.00 82
20260507085425 61 350 2.6 6.1 0.00 0.00 0.00 82
20260507084504 61 344 3.5 5.2 0.00 0.00 0.00 83
20260507083604 60 328 1.7 7.0 0.00 0.00 0.00 83
20260507082704 60 345 0.9 3.5 0.00 0.00 0.00 83
20260507081804 60 322 1.7 5.2 0.00 0.00 0.00 84
20260507080904 60 249 0.9 3.5 0.00 0.00 0.00 84
20260507080025 60 276 1.7 3.5 0.00 0.00 0.00 83
20260507075425 61 268 0.9 3.5 0.00 0.00 0.00 84
20260507074504 61 238 1.7 5.2 0.00 0.00 0.00 83
20260507073625 61 243 1.7 5.2 0.00 0.00 0.00 84
20260507072704 60 261 1.7 4.3 0.00 0.00 0.00 84
20260507071804 60 268 1.7 4.3 0.00 0.00 0.00 83
20260507070925 60 247 0.9 2.6 0.00 0.00 0.00 83
20260507070009 60 233 2.6 5.2 0.00 0.00 0.00 83
20260507065404 59 231 2.6 5.2 0.00 0.00 0.00 83
20260507064504 59 224 1.7 4.3 0.00 0.00 0.00 84
20260507063604 59 217 2.6 5.2 0.00 0.00 0.00 84
20260507062704 59 208 3.5 5.2 0.00 0.00 0.00 84
20260507061805 59 214 2.6 4.3 0.00 0.00 0.00 85
20260507060905 59 223 1.7 3.5 0.00 0.00 0.00 86
20260507060004 58 217 1.7 4.3 0.00 0.00 0.00 86
20260507055404 58 206 1.7 4.3 0.00 0.00 0.00 86
20260507054504 60 228 1.7 4.3 0.00 0.00 0.00 87
20260507053625 60 247 0.9 2.6 0.00 0.00 0.00 88
20260507052704 60 263 0.0 1.7 0.00 0.00 0.00 87
20260507051804 60 266 0.9 3.5 0.00 0.00 0.00 88
20260507050904 60 266 0.9 2.6 0.00 0.00 0.00 87
20260507050004 60 265 0.9 2.6 0.00 0.00 0.00 87
20260507045404 60 272 0.9 2.6 0.00 0.00 0.00 87
20260507044504 60 283 0.9 2.6 0.00 0.00 0.00 87
20260507043604 60 298 0.9 3.5 0.00 0.00 0.00 87
20260507042704 60 257 0.9 2.6 0.00 0.00 0.00 87
20260507041804 60 232 0.9 2.6 0.00 0.00 0.00 87
20260507040907 60 236 0.9 3.5 0.00 0.00 0.00 87
20260507040005 60 271 0.9 2.6 0.00 0.00 0.00 87
20260507035404 60 311 0.0 1.7 0.00 0.00 0.00 87
20260507034525 60 314 0.9 2.6 0.00 0.00 0.00 87
20260507033625 60 313 0.9 3.5 0.00 0.00 0.00 87
20260507032725 61 329 0.9 2.6 0.00 0.00 0.00 86
20260507031804 60 335 0.0 0.9 0.00 0.00 0.00 86
20260507030904 61 331 0.9 2.6 0.00 0.00 0.00 86
20260507030004 61 314 0.9 2.6 0.00 0.00 0.00 86
20260507025404 61 294 0.9 2.6 0.00 0.00 0.00 86
20260507024504 61 278 1.7 3.5 0.00 0.00 0.00 85
20260507023604 61 294 1.7 4.3 0.00 0.00 0.00 85
20260507022725 61 292 0.9 3.5 0.00 0.00 0.00 85
20260507021804 62 261 0.9 2.6 0.00 0.00 0.00 85
20260507020904 62 243 0.9 2.6 0.00 0.00 0.00 85
20260507020004 62 297 0.9 2.6 0.00 0.00 0.00 85
20260507015425 62 301 0.0 1.7 0.00 0.00 0.00 85
20260507014504 62 302 0.9 1.7 0.00 0.00 0.00 85
20260507013604 62 308 1.7 3.5 0.00 0.00 0.00 84
20260507012704 62 311 1.7 6.1 0.00 0.00 0.00 84
20260507011804 62 258 0.9 2.6 0.00 0.00 0.00 83
20260507010926 62 355 0.0 0.9 0.00 0.00 0.00 83
20260507010004 62 355 0.0 0.9 0.00 0.00 0.00 83
20260507005404 62 355 0.9 2.6 0.00 0.00 0.00 83
20260507004504 62 355 1.7 3.5 0.00 0.00 0.00 83
20260507003604 62 350 1.7 3.5 0.00 0.00 0.00 83
20260507002704 62 318 1.7 3.5 0.00 0.00 0.00 82
20260507001804 62 293 0.9 2.6 0.00 0.00 0.00 82
20260507000904 62 301 0.9 2.6 0.00 0.00 0.00 82
20260507000025 62 303 0.9 2.6 0.00 0.00 0.00 82
20260506235404 63 301 1.7 3.5 0.00 0.00 0.00 82
20260506234525 63 284 0.9 3.5 0.00 0.00 0.00 82
20260506233604 63 275 1.7 3.5 0.00 0.00 0.00 82
20260506232703 63 294 1.7 3.5 0.00 0.00 0.00 82
20260506231803 63 300 1.7 4.3 0.00 0.00 0.00 81
20260506230903 63 295 0.9 2.6 0.00 0.00 0.00 81
20260506230004 63 285 0.9 3.5 0.00 0.00 0.00 81
20260506225425 63 285 0.9 3.5 0.00 0.00 0.00 81
20260506224525 63 274 0.9 2.6 0.00 0.00 0.00 81
20260506223604 63 252 0.9 1.7 0.00 0.00 0.00 81
20260506222704 63 205 0.9 2.6 0.00 0.00 0.00 81
20260506221804 63 224 0.9 2.6 0.00 0.00 0.00 81
20260506220904 63 264 0.9 3.5 0.00 0.00 0.00 81
20260506220004 63 308 0.0 1.7 0.00 0.00 0.00 81
20260506215404 63 308 0.0 3.5 0.00 0.00 0.00 81
20260506214525 63 329 2.6 5.2 0.00 0.00 0.00 81
20260506213604 63 323 3.5 5.2 0.00 0.00 0.00 81
20260506212704 64 301 1.7 5.2 0.00 0.00 0.00 81
20260506211804 64 172 1.7 4.3 0.00 0.00 0.00 81
20260506210904 64 196 1.7 4.3 0.00 0.00 0.00 81
20260506210004 64 291 0.9 3.5 0.00 0.00 0.00 80
20260506205404 64 310 1.7 3.5 0.00 0.00 0.00 80
20260506204504 64 309 1.7 4.3 0.00 0.00 0.00 80
20260506203625 65 303 1.7 6.1 0.00 0.00 0.00 79
20260506202725 65 228 2.6 5.2 0.00 0.00 0.00 79
20260506201804 65 222 1.7 5.2 0.00 0.00 0.00 79
20260506200904 65 256 0.9 2.6 0.00 0.00 0.00 78
20260506200004 66 269 1.7 3.5 0.00 0.00 0.00 78
20260506195403 66 258 1.7 4.3 0.00 0.00 0.00 78
20260506194525 66 255 1.7 4.3 0.00 0.00 0.00 77
20260506193604 65 283 0.9 2.6 0.00 0.00 0.00 77
20260506192704 66 299 1.7 6.1 0.00 0.00 0.00 77
20260506191825 66 291 1.7 6.1 0.00 0.00 0.00 76
20260506190925 66 301 3.5 7.0 0.00 0.00 0.00 76
20260506190004 66 305 2.6 7.0 0.00 0.00 0.00 75
20260506185404 67 297 2.6 7.0 0.00 0.00 0.00 73
20260506184504 68 292 1.7 6.1 0.00 0.00 0.00 73
20260506183604 67 310 2.6 5.2 0.00 0.00 0.00 73
20260506182704 67 311 3.5 7.0 0.00 0.00 0.00 73
20260506181804 68 305 4.3 7.8 0.00 0.00 0.00 72
20260506180925 68 302 2.6 7.8 0.00 0.00 0.00 72
20260506180005 68 337 3.5 8.7 0.00 0.00 0.00 72
20260506175404 68 334 3.5 8.7 0.00 0.00 0.00 72
20260506174504 68 320 3.5 7.8 0.00 0.00 0.00 72
20260506173603 69 319 2.6 7.0 0.00 0.00 0.00 71
20260506172704 69 282 2.6 7.0 0.00 0.00 0.00 70
20260506171804 68 314 2.6 7.0 0.00 0.00 0.00 71
20260506170904 69 313 3.5 7.8 0.00 0.00 0.00 69
20260506170025 69 338 3.5 7.0 0.00 0.00 0.00 70
20260506165404 69 342 3.5 7.8 0.00 0.00 0.00 69
20260506164525 69 342 4.3 9.6 0.00 0.00 0.00 71
20260506163604 69 310 4.3 9.6 0.00 0.00 0.00 71
20260506162704 69 322 4.3 8.7 0.00 0.00 0.00 71
20260506161803 69 330 4.3 9.6 0.00 0.00 0.00 70
20260506160904 69 342 5.2 9.6 0.00 0.00 0.00 71
20260506160004 70 343 4.3 8.7 0.00 0.00 0.00 71
20260506155404 70 342 5.2 9.6 0.00 0.00 0.00 71
20260506154525 70 336 5.2 9.6 0.00 0.00 0.00 70
20260506153604 70 336 5.2 12.2 0.00 0.00 0.00 70
20260506152725 69 338 5.2 12.2 0.00 0.00 0.00 71
20260506151804 69 352 4.3 8.7 0.00 0.00 0.00 72
20260506150903 68 348 5.2 11.3 0.00 0.00 0.00 72
20260506150004 69 336 5.2 10.4 0.00 0.00 0.00 72
20260506145403 69 345 6.1 10.4 0.00 0.00 0.00 73
20260506144503 69 353 5.2 10.4 0.00 0.00 0.00 72
20260506143604 68 340 2.6 7.8 0.00 0.00 0.00 73
20260506142704 68 6 3.5 7.8 0.00 0.00 0.00 74
20260506141804 68 335 6.1 12.2 0.00 0.00 0.00 74
20260506140904 68 339 6.1 12.2 0.00 0.00 0.00 73
20260506140004 69 2 5.2 10.4 0.00 0.00 0.00 74
20260506135425 68 356 5.2 8.7 0.00 0.00 0.00 74
20260506134504 68 330 3.5 7.8 0.00 0.00 0.00 75
20260506133604 68 1 3.5 7.8 0.00 0.00 0.00 75
20260506132725 68 348 1.7 5.2 0.00 0.00 0.00 76
20260506131804 67 351 3.5 7.0 0.00 0.00 0.00 76
20260506130925 67 348 2.6 6.1 0.00 0.00 0.00 77
20260506130004 66 327 2.6 7.0 0.00 0.00 0.00 78
20260506125404 66 324 2.6 7.0 0.00 0.00 0.00 78
20260506124504 66 347 3.5 7.8 0.00 0.00 0.00 79
20260506123603 65 356 5.2 8.7 0.00 0.00 0.00 79
20260506122704 66 355 6.1 9.6 0.00 0.00 0.00 78
20260506121804 67 356 4.3 9.6 0.00 0.00 0.00 78
20260506120904 66 13 2.6 7.0 0.00 0.00 0.00 80
20260506120025 66 25 1.7 7.0 0.00 0.00 0.00 80
20260506115404 66 337 1.7 7.0 0.00 0.00 0.00 81
20260506114503 65 351 2.6 7.0 0.00 0.00 0.00 81
20260506113624 65 349 1.7 7.0 0.00 0.00 0.00 82
20260506112704 65 337 3.5 7.8 0.00 0.00 0.00 82
20260506111804 64 326 2.6 5.2 0.00 0.00 0.00 82
20260506110904 64 320 0.9 2.6 0.00 0.00 0.00 83
20260506110004 64 324 1.7 4.3 0.00 0.00 0.00 83
20260506105404 64 345 2.6 7.0 0.00 0.00 0.00 83
20260506104504 64 346 2.6 7.0 0.00 0.00 0.00 83
20260506103604 65 341 4.3 7.8 0.00 0.00 0.00 82
20260506102725 66 347 4.3 9.6 0.00 0.00 0.00 80
20260506101804 66 333 1.7 5.2 0.00 0.00 0.00 78
20260506100925 65 326 1.7 3.5 0.00 0.00 0.00 81
20260506100004 64 339 0.9 2.6 0.00 0.00 0.00 82
20260506095403 64 230 0.9 1.7 0.00 0.00 0.00 84